Lexington Weather

Lexington, Massachusetts, USA

25°F
1/21/2021 10:09am 
  • Lexington Conditions: Clear
  • Temperature: 25.0°F / -3.9°CWarmer 2.4°F than last hour.
  • Dew Point: 13.8°FIncreased 1.8°Fsince last hour.
  • Relative Humidity: 62%Decreased 1.0% since last hour.
  • Wind: Wind from WSW WSW Calm, 10-min avg: 1 mph, gust: 4 mph
  • Barometer: 29.78 in Steady
  • Visibility: 10 miles
  • Snow Today: Trace
  •   

Regional Weather Roundup
for Boston / Norton, MA

        
000
ASUS41 KBOX 190904
RWRBOX

REGIONAL WEATHER ROUNDUP
NATIONAL WEATHER SERVICE BOSTON/NORTON MA
400 AM EST TUE JAN 19 2021

NOTE:  "FAIR" INDICATES FEW OR NO CLOUDS BELOW 12,000 FEET WITH NO 
SIGNIFICANT WEATHER AND/OR OBSTRUCTIONS TO VISIBILITY.

MAZALL-191000-
EASTERN MASSACHUSETTS
  
CITY           SKY/WX    TMP DP  RH WIND       PRES   REMARKS
BOSTON         PTCLDY    28  16  60 W7        29.91R WCI  21          
BEVERLY        CLEAR     28  14  55 W8        29.88S WCI  20          
LAWRENCE       CLEAR     26  14  60 W6        29.91R WCI  19          
BEDFORD        CLEAR     27  15  61 W8        29.90R WCI  19          
BLUE HILL        N/A     24  16  71 W10       29.86R WCI  14          
NORWOOD        CLEAR     29  14  53 W9        29.91R WCI  20          
MARSHFIELD     CLEAR     30  18  59 VRB6G12   29.90R WCI  24          
PLYMOUTH       CLEAR     28  16  60 W10       29.90R WCI  19          
TAUNTON        CLEAR     29  16  58 W3        29.91R                  
NEW BEDFORD    CLEAR     29  18  63 W7        29.91R WCI  22          
$$

MAZALL-191000-
CAPE COD AND THE ISLANDS
  
CITY           SKY/WX    TMP DP  RH WIND       PRES   REMARKS
FALMOUTH       NOT AVBL                                               
HYANNIS        CLEAR     30  17  58 W8        29.89R WCI  22          
CHATHAM        CLEAR     30  18  60 VRB5      29.90R WCI  25          
PROVINCETOWN   CLEAR     31  22  69 W15G23    29.89R WCI  20          
NANTUCKET      CLEAR     30  19  63 W12       29.91R WCI  20          
MARTHAS VNYRD  CLEAR     31  18  58 NW10G18   29.91S WCI  22          
$$
 
MAZALL-191000-
CENTRAL AND WESTERN MASSACHUSETTS
  
CITY           SKY/WX    TMP DP  RH WIND       PRES   REMARKS
WORCESTER      CLEAR     25  13  60 W10       29.86R WCI  15          
FITCHBURG      CLOUDY    26  16  65 W9        29.90R WCI  17          
ORANGE         CLEAR     24  14  65 W5        29.90S WCI  18          
SPRINGFIELD    MOCLDY    27  17  66 CALM      29.91S                  
WESTFIELD      CLEAR     24  18  77 S5        29.92S WCI  18          
NORTH ADAMS    CLOUDY    26  18  71 W6        29.91F WCI  19          
PITTSFIELD     MOCLDY    24  19  81 W5        29.87S WCI  18          
$$
 
RIZALL-191000-
RHODE ISLAND
  
CITY           SKY/WX    TMP DP  RH WIND       PRES   REMARKS
PROVIDENCE     CLEAR     30  18  60 NW7       29.93R WCI  23          
NEWPORT        CLEAR     30  19  63 NW12      29.92R WCI  20          
BLOCK ISLAND   CLEAR     32  22  66 NW10G20   29.94R WCI  24          
SMITHFIELD     CLEAR     27  19  72 NW9       29.90R WCI  18          
WESTERLY       CLEAR     28  19  69 CALM      29.94R                  
$$
 
CTZALL-191000-
CONNECTICUT
  
CITY           SKY/WX    TMP DP  RH WIND       PRES   REMARKS
BRADLEY INTL   PTCLDY    24  19  81 CALM      29.93S                  
HARTFORD       CLEAR     28  22  78 CALM      29.95S                  
BRIDGEPORT     NOT AVBL                                               
DANBURY        MOCLDY    31  24  75 SW5       29.95R WCI  26          
GROTON         CLEAR     29  20  69 NW5       29.94S WCI  24          
NEW HAVEN      CLEAR     26  18  71 CALM      29.95R                  
CHESTER        FAIR      28  21  74 CALM      29.93R                  
MERIDEN        CLEAR     22  19  89 CALM      29.95S                  
WILLIMANTIC    CLEAR     28  19  69 CALM      29.93S                  
OXFORD         CLEAR     27  22  81 CALM      29.92S                  
$$

MEZ002-015-021-024-NHZ003-005-008-011-012-014-VTZ005-008-191000-
NORTHERN NEW ENGLAND
  
CITY           SKY/WX    TMP DP  RH WIND       PRES   REMARKS
PORTLAND ME    CLEAR     19  14  81 W3        29.86R                  
BANGOR ME      CLEAR     18   6  59 NW6       29.79R WCI  10          
CONCORD NH     CLEAR     20  12  71 NW7       29.89S WCI  11          
MANCHESTER NH  CLEAR     26  13  57 W8        29.88S WCI  18          
NASHUA NH      PTCLDY    25  15  66 W8        29.90R WCI  16          
PORTSMOUTH NH  CLEAR     24   8  50 W17       29.85S WCI  11          
JAFFREY NH     CLOUDY    22  12  65 VRB5      29.86R WCI  16          
KEENE NH       CLEAR     21  15  78 N5        29.90S WCI  15          
BURLINGTON VT  MOCLDY    13   8  81 NE3       29.95R                  
MT. WASHINGTON NOT AVBL                                               
$$

NYZ052-076-191000-
EASTERN NEW YORK
  
CITY           SKY/WX    TMP DP  RH WIND       PRES   REMARKS
ALBANY         CLOUDY    22  19  89 CALM      29.94S                  
NEW YORK CITY  MOCLDY    38  23  55 W14       29.98R WCI  30          
$$
 
ANZALL-191000-
MARINE OBSERVATIONS
  
STATION/POSITION TIME  TEMP    WIND        PRES    VSBY  WAVE
                       AIR SEA DIR/SP/G                  HT/PER
                 (UTC) (F)     (DEG/KT/KT) (MB)    (MI)  (FT/S)
BOSTON BUOY      0840   33 43  280/ 17/ 23 1012.4R
BUZZARDS BAY     0800          310/ 19/ 21 1013.9R
NANTUCKET SOUND  0840      40  290/ 19/ 25   N/A
MASS BAY-STELLWA 0804   32     290/ 21/ 25 1010.1R  1 7/8  3/ 4
ISLE OF SHOALS   0800   27     290/ 25/ 28 1010.1R
S OF BLOCK IS    0826      49                N/A           6/ 6
$$

......................KEY.........................
  SKY/WX - SKY CONDITION/PRESENT WEATHER
  TMP    - TEMPERATURE IN FAHRENHEIT
  DWPT   - DEWPOINT IN FAHRENHEIT
  RH     - RELATIVE HUMIDITY IN PERCENT
  WIND   - DIRECTION AND SPEED IN MPH
  PRES   - MEAN SEA LEVEL PRESSURE IN INCHES OF HG
  WCI    - WIND CHILL INDEX
  VSB    - VISIBILITY IN MILES
  HX     - HEAT INDEX
  TC     - TEMPERATURE IN CELSIUS
  VRB    - VARIABLE WIND DIRECTION
  N/A    - NOT AVAILABLE
  
      

Other recent Regional Weather Roundups

Thu Jan 21, 9:04am

Thu Jan 21, 7:04am

Thu Jan 21, 6:04am

Thu Jan 21, 5:04am

Thu Jan 21, 4:04am

Thu Jan 21, 3:04am

Thu Jan 21, 2:04am

Thu Jan 21, 1:04am

Thu Jan 21, 12:04am

Wed Jan 20, 11:04pm

Wed Jan 20, 10:05pm

Wed Jan 20, 9:04pm

Wed Jan 20, 8:04pm

Wed Jan 20, 7:04pm

Wed Jan 20, 6:05pm

Wed Jan 20, 5:05pm

Wed Jan 20, 1:04pm

Wed Jan 20, 12:04pm

Wed Jan 20, 11:04am

Wed Jan 20, 10:04am

Wed Jan 20, 9:05am

Wed Jan 20, 8:04am

Wed Jan 20, 7:04am

Wed Jan 20, 6:04am

Wed Jan 20, 5:04am

Wed Jan 20, 4:04am

Wed Jan 20, 3:05am

Wed Jan 20, 2:04am

Wed Jan 20, 1:04am

Wed Jan 20, 12:04am

Tue Jan 19, 11:04pm

Tue Jan 19, 10:04pm

Tue Jan 19, 9:04pm

Tue Jan 19, 8:04pm

Tue Jan 19, 7:04pm

Tue Jan 19, 6:05pm

Tue Jan 19, 5:04pm

Tue Jan 19, 4:05pm

Tue Jan 19, 3:04pm

Tue Jan 19, 2:04pm

Tue Jan 19, 1:04pm

Tue Jan 19, 12:05pm

Tue Jan 19, 11:04am

Tue Jan 19, 10:05am

Tue Jan 19, 9:04am

Tue Jan 19, 8:04am

Tue Jan 19, 7:04am

Tue Jan 19, 6:04am

Tue Jan 19, 5:04am

Tue Jan 19, 3:04am

Tue Jan 19, 2:04am

Tue Jan 19, 1:04am

Tue Jan 19, 12:04am

Mon Jan 18, 11:04pm

Mon Jan 18, 10:04pm

Mon Jan 18, 9:04pm

Mon Jan 18, 8:05pm

Mon Jan 18, 7:04pm

Mon Jan 18, 6:05pm

Mon Jan 18, 5:04pm

Mon Jan 18, 4:04pm

Mon Jan 18, 3:04pm

Mon Jan 18, 2:04pm

Mon Jan 18, 1:04pm

Mon Jan 18, 12:04pm

Mon Jan 18, 11:04am

Mon Jan 18, 10:04am

Mon Jan 18, 9:04am

Mon Jan 18, 8:04am

Mon Jan 18, 7:04am

Mon Jan 18, 6:04am

Mon Jan 18, 5:04am

Mon Jan 18, 4:04am

Mon Jan 18, 3:04am

Mon Jan 18, 2:04am

Mon Jan 18, 1:04am

Mon Jan 18, 12:04am

Sun Jan 17, 11:04pm

Sun Jan 17, 10:04pm

Sun Jan 17, 9:04pm

Sun Jan 17, 8:04pm

Sun Jan 17, 7:04pm

Sun Jan 17, 6:04pm

Sun Jan 17, 5:04pm

Sun Jan 17, 4:05pm

Sun Jan 17, 3:04pm

Sun Jan 17, 2:04pm

Sun Jan 17, 1:04pm

Sun Jan 17, 12:04pm

Sun Jan 17, 11:04am

Sun Jan 17, 10:04am

Sun Jan 17, 9:04am

Sun Jan 17, 8:04am

Sun Jan 17, 7:04am

Sun Jan 17, 6:04am

Sun Jan 17, 5:04am

Sun Jan 17, 4:04am

Sun Jan 17, 3:04am

Sun Jan 17, 2:04am

Sun Jan 17, 1:04am

Sun Jan 17, 12:04am

Sat Jan 16, 11:05pm

Sat Jan 16, 10:04pm

Sat Jan 16, 9:04pm

Sat Jan 16, 8:05pm

Sat Jan 16, 7:04pm

Sat Jan 16, 6:04pm

Sat Jan 16, 5:05pm

Sat Jan 16, 4:05pm

Sat Jan 16, 3:05pm

Sat Jan 16, 2:04pm

Sat Jan 16, 1:04pm

Sat Jan 16, 12:04pm

Sat Jan 16, 11:04am

Sat Jan 16, 10:05am

Sat Jan 16, 9:04am

Sat Jan 16, 8:04am

Sat Jan 16, 7:04am

Sat Jan 16, 6:04am

Sat Jan 16, 5:04am

Sat Jan 16, 4:04am

Sat Jan 16, 3:05am

Sat Jan 16, 2:04am

Sat Jan 16, 1:04am

Sat Jan 16, 12:05am

Fri Jan 15, 11:05pm

Fri Jan 15, 10:04pm

Fri Jan 15, 9:04pm

Fri Jan 15, 8:04pm

Fri Jan 15, 7:05pm

Fri Jan 15, 6:05pm

Fri Jan 15, 5:05pm

Fri Jan 15, 4:05pm

Fri Jan 15, 3:04pm

Fri Jan 15, 2:05pm

Fri Jan 15, 1:04pm

Fri Jan 15, 12:05pm

Fri Jan 15, 11:04am

Fri Jan 15, 10:04am

Fri Jan 15, 9:05am

Fri Jan 15, 8:04am

Fri Jan 15, 7:04am

Fri Jan 15, 6:04am

Fri Jan 15, 5:05am

Fri Jan 15, 4:04am

Fri Jan 15, 3:04am

Fri Jan 15, 2:04am

Fri Jan 15, 1:04am

Fri Jan 15, 12:05am

Thu Jan 14, 11:04pm

Thu Jan 14, 10:04pm

Thu Jan 14, 9:04pm

Thu Jan 14, 8:05pm

Thu Jan 14, 7:04pm

Thu Jan 14, 6:04pm

Thu Jan 14, 5:04pm

Thu Jan 14, 4:05pm

Thu Jan 14, 3:04pm

Thu Jan 14, 2:04pm

Thu Jan 14, 1:04pm

Thu Jan 14, 12:05pm

Thu Jan 14, 11:05am

Thu Jan 14, 10:04am

Thu Jan 14, 9:04am

Thu Jan 14, 8:04am

Thu Jan 14, 7:04am

Thu Jan 14, 6:04am

Thu Jan 14, 5:04am

Thu Jan 14, 4:04am

Thu Jan 14, 3:04am

Thu Jan 14, 2:04am

Thu Jan 14, 1:04am

Thu Jan 14, 12:04am

Wed Jan 13, 11:04pm

Wed Jan 13, 10:04pm

Wed Jan 13, 9:04pm

Wed Jan 13, 8:05pm

Wed Jan 13, 7:04pm

Wed Jan 13, 6:04pm

Wed Jan 13, 5:04pm

Wed Jan 13, 4:04pm

Wed Jan 13, 3:05pm

Wed Jan 13, 2:04pm

Wed Jan 13, 1:04pm

Wed Jan 13, 12:04pm

Wed Jan 13, 11:04am

Wed Jan 13, 10:04am

Wed Jan 13, 9:05am

Wed Jan 13, 8:04am

Wed Jan 13, 7:04am

Wed Jan 13, 6:04am

Wed Jan 13, 5:04am

Wed Jan 13, 4:04am

Wed Jan 13, 3:04am

Wed Jan 13, 2:04am

Wed Jan 13, 1:04am

Wed Jan 13, 12:05am

Tue Jan 12, 11:04pm

Tue Jan 12, 10:04pm

Tue Jan 12, 9:04pm

Tue Jan 12, 8:05pm

Tue Jan 12, 7:04pm

Meta data:

ID: f4d2ba3e-bcbc-4401-805d-29ef868a08a5
Link: https://api.weather.gov/products/f4d2ba3e-bcbc-4401-805d-29ef868a08a5